Time,TemperatureF,DewpointF,PressureIn,WindDirection,WindDirectionDegrees,WindSpeedMPH,WindSpeedGustMPH,Humidity,HourlyPrecipIn,Conditions,Clouds,dailyrainin,SoftwareType,DateUTC
2013-04-23 00:02:00,50.0,37.0,-100.00,NW,322,6.0,7.0,61,-99.99,,,-99.99,,2013-04-23 07:02:00,
2013-04-23 00:11:00,51.0,34.0,-100.00,NW,317,6.0,6.0,51,-99.99,,,-99.99,,2013-04-23 07:11:00,
2013-04-23 00:21:00,51.0,32.0,-100.00,NW,323,6.0,7.0,48,-99.99,,,-99.99,,2013-04-23 07:21:00,
2013-04-23 00:32:00,49.0,32.0,-100.00,NW,320,6.0,7.0,51,-99.99,,,-99.99,,2013-04-23 07:32:00,
2013-04-23 00:42:00,48.0,35.0,-100.00,NW,321,6.0,7.0,61,-99.99,,,-99.99,,2013-04-23 07:42:00,
2013-04-23 00:52:00,49.0,35.0,-100.00,NNW,328,4.0,5.0,59,-99.99,,,-99.99,,2013-04-23 07:52:00,
2013-04-23 01:01:00,50.0,33.0,-100.00,NNW,331,5.0,8.0,52,-99.99,,,-99.99,,2013-04-23 08:01:00,
2013-04-23 01:11:00,51.0,32.0,-100.00,NNW,327,5.0,9.0,48,-99.99,,,-99.99,,2013-04-23 08:11:00,
2013-04-23 01:21:00,49.0,31.0,-100.00,NNW,329,6.0,7.0,49,-99.99,,,-99.99,,2013-04-23 08:21:00,
2013-04-23 01:31:00,49.0,33.0,-100.00,NW,324,6.0,8.0,53,-99.99,,,-99.99,,2013-04-23 08:31:00,
2013-04-23 01:42:00,48.0,32.0,-100.00,NW,325,6.0,8.0,54,-99.99,,,-99.99,,2013-04-23 08:42:00,
2013-04-23 01:52:00,47.0,30.0,-100.00,NNW,328,6.0,7.0,51,-99.99,,,-99.99,,2013-04-23 08:52:00,
2013-04-23 02:01:00,47.0,30.0,-100.00,NW,326,6.0,8.0,51,-99.99,,,-99.99,,2013-04-23 09:01:00,
2013-04-23 02:11:00,47.0,30.0,-100.00,NW,326,6.0,8.0,51,-99.99,,,-99.99,,2013-04-23 09:11:00,
2013-04-23 02:21:00,48.0,31.0,-100.00,NW,325,7.0,8.0,51,-99.99,,,-99.99,,2013-04-23 09:21:00,
2013-04-23 02:32:00,47.0,31.0,-100.00,NNW,329,6.0,7.0,53,-99.99,,,-99.99,,2013-04-23 09:32:00,
2013-04-23 02:42:00,48.0,27.0,-100.00,NNW,328,6.0,8.0,43,-99.99,,,-99.99,,2013-04-23 09:42:00,
2013-04-23 02:52:00,48.0,30.0,-100.00,NW,326,6.0,7.0,50,-99.99,,,-99.99,,2013-04-23 09:52:00,
2013-04-23 03:02:00,48.0,27.0,-100.00,NNW,328,7.0,8.0,44,-99.99,,,-99.99,,2013-04-23 10:02:00,
2013-04-23 03:12:00,47.0,30.0,-100.00,NW,326,7.0,8.0,51,-99.99,,,-99.99,,2013-04-23 10:12:00,
2013-04-23 03:22:00,47.0,30.0,-100.00,NNW,332,6.0,7.0,51,-99.99,,,-99.99,,2013-04-23 10:22:00,
2013-04-23 03:32:00,48.0,25.0,-100.00,NNW,329,7.0,8.0,41,-99.99,,,-99.99,,2013-04-23 10:32:00,
2013-04-23 03:42:00,47.0,27.0,-100.00,NW,326,7.0,8.0,45,-99.99,,,-99.99,,2013-04-23 10:42:00,
2013-04-23 03:52:00,47.0,29.0,-100.00,NNW,331,6.0,7.0,49,-99.99,,,-99.99,,2013-04-23 10:52:00,
2013-04-23 04:02:00,48.0,24.0,-100.00,NNW,333,5.0,7.0,39,-99.99,,,-99.99,,2013-04-23 11:02:00,
2013-04-23 04:12:00,47.0,25.0,-100.00,NW,324,7.0,8.0,41,-99.99,,,-99.99,,2013-04-23 11:12:00,
2013-04-23 04:21:00,46.0,28.0,-100.00,NNW,329,7.0,8.0,49,-99.99,,,-99.99,,2013-04-23 11:21:00,
2013-04-23 04:32:00,47.0,25.0,-100.00,NNW,331,5.0,7.0,42,-99.99,,,-99.99,,2013-04-23 11:32:00,
2013-04-23 04:42:00,50.0,21.0,-100.00,NNW,332,4.0,5.0,32,-99.99,,,-99.99,,2013-04-23 11:42:00,
2013-04-23 04:52:00,51.0,21.0,-100.00,NNW,334,5.0,7.0,30,-99.99,,,-99.99,,2013-04-23 11:52:00,
2013-04-23 05:02:00,48.0,23.0,-100.00,NW,324,7.0,10.0,37,-99.99,,,-99.99,,2013-04-23 12:02:00,
2013-04-23 05:12:00,46.0,26.0,-100.00,NNW,331,7.0,8.0,45,-99.99,,,-99.99,,2013-04-23 12:12:00,
2013-04-23 05:22:00,46.0,25.0,-100.00,NNW,328,7.0,8.0,44,-99.99,,,-99.99,,2013-04-23 12:22:00,
2013-04-23 05:32:00,47.0,25.0,-100.00,NNW,330,6.0,8.0,41,-99.99,,,-99.99,,2013-04-23 12:32:00,
2013-04-23 05:41:00,47.0,25.0,-100.00,NNW,330,6.0,8.0,41,-99.99,,,-99.99,,2013-04-23 12:41:00,
2013-04-23 05:51:00,49.0,25.0,-100.00,NW,326,7.0,8.0,38,-99.99,,,-99.99,,2013-04-23 12:51:00,
2013-04-23 06:01:00,47.0,26.0,-100.00,NNW,330,6.0,9.0,43,-99.99,,,-99.99,,2013-04-23 13:01:00,
2013-04-23 06:11:00,49.0,25.0,-100.00,NNW,333,6.0,8.0,38,-99.99,,,-99.99,,2013-04-23 13:11:00,
2013-04-23 06:21:00,49.0,25.0,-100.00,NNW,328,6.0,8.0,39,-99.99,,,-99.99,,2013-04-23 13:21:00,
2013-04-23 06:32:00,48.0,26.0,-100.00,NW,326,7.0,9.0,42,-99.99,,,-99.99,,2013-04-23 13:32:00,
2013-04-23 06:41:00,47.0,27.0,-100.00,NW,325,7.0,8.0,45,-99.99,,,-99.99,,2013-04-23 13:41:00,
2013-04-23 06:52:00,47.0,27.0,-100.00,NNW,331,6.0,8.0,45,-99.99,,,-99.99,,2013-04-23 13:52:00,
2013-04-23 07:01:00,47.0,27.0,-100.00,NNW,331,6.0,8.0,45,-99.99,,,-99.99,,2013-04-23 14:01:00,
2013-04-23 07:11:00,49.0,28.0,-100.00,NNW,327,6.0,7.0,44,-99.99,,,-99.99,,2013-04-23 14:11:00,
2013-04-23 07:22:00,51.0,29.0,-100.00,NW,323,6.0,7.0,42,-99.99,,,-99.99,,2013-04-23 14:22:00,
2013-04-23 07:31:00,51.0,29.0,-100.00,NW,326,6.0,8.0,42,-99.99,,,-99.99,,2013-04-23 14:31:00,
2013-04-23 07:42:00,52.0,29.0,-100.00,NW,322,7.0,8.0,41,-99.99,,,-99.99,,2013-04-23 14:42:00,
2013-04-23 07:52:00,53.0,29.0,-100.00,NNW,328,7.0,9.0,40,-99.99,,,-99.99,,2013-04-23 14:52:00,
2013-04-23 08:01:00,55.0,30.0,-100.00,NNW,343,4.0,7.0,38,-99.99,,,-99.99,,2013-04-23 15:01:00,
2013-04-23 08:11:00,57.0,30.0,-100.00,North,351,4.0,6.0,35,-99.99,,,-99.99,,2013-04-23 15:11:00,
2013-04-23 08:21:00,58.0,29.0,-100.00,NW,313,6.0,8.0,33,-99.99,,,-99.99,,2013-04-23 15:21:00,
2013-04-23 08:32:00,60.0,30.0,-100.00,NNW,329,5.0,7.0,32,-99.99,,,-99.99,,2013-04-23 15:32:00,
2013-04-23 08:42:00,61.0,30.0,-100.00,NNW,335,3.0,6.0,31,-99.99,,,-99.99,,2013-04-23 15:42:00,
2013-04-23 08:52:00,62.0,31.0,-100.00,SE,136,2.0,6.0,31,-99.99,,,-99.99,,2013-04-23 15:52:00,
2013-04-23 09:02:00,64.0,33.0,-100.00,SSE,147,2.0,5.0,31,-99.99,,,-99.99,,2013-04-23 16:02:00,
2013-04-23 09:12:00,65.0,33.0,-100.00,ESE,116,3.0,7.0,30,-99.99,,,-99.99,,2013-04-23 16:12:00,
2013-04-23 09:23:00,67.0,32.0,-100.00,ESE,112,2.0,6.0,27,-99.99,,,-99.99,,2013-04-23 16:23:00,
2013-04-23 09:33:00,68.0,30.0,-100.00,East,93,3.0,10.0,24,-99.99,,,-99.99,,2013-04-23 16:33:00,
2013-04-23 09:42:00,68.0,28.0,-100.00,ENE,76,4.0,16.0,22,-99.99,,,-99.99,,2013-04-23 16:42:00,
2013-04-23 09:52:00,69.0,29.0,-100.00,SE,143,6.0,14.0,22,-99.99,,,-99.99,,2013-04-23 16:52:00,
2013-04-23 10:02:00,69.0,27.0,-100.00,ESE,114,6.0,15.0,21,-99.99,,,-99.99,,2013-04-23 17:02:00,
2013-04-23 10:11:00,69.0,26.0,-100.00,SE,126,7.0,16.0,20,-99.99,,,-99.99,,2013-04-23 17:11:00,
2013-04-23 10:22:00,69.0,26.0,-100.00,ESE,109,9.0,18.0,20,-99.99,,,-99.99,,2013-04-23 17:22:00,
2013-04-23 10:32:00,69.0,26.0,-100.00,ESE,121,8.0,19.0,20,-99.99,,,-99.99,,2013-04-23 17:32:00,
2013-04-23 10:42:00,69.0,26.0,-100.00,ESE,104,8.0,21.0,20,-99.99,,,-99.99,,2013-04-23 17:42:00,
2013-04-23 10:53:00,69.0,26.0,-100.00,ESE,103,8.0,16.0,20,-99.99,,,-99.99,,2013-04-23 17:53:00,
2013-04-23 11:01:00,69.0,26.0,-100.00,ESE,103,8.0,16.0,20,-99.99,,,-99.99,,2013-04-23 18:01:00,
2013-04-23 11:12:00,69.0,25.0,-100.00,ESE,103,8.0,18.0,19,-99.99,,,-99.99,,2013-04-23 18:12:00,
2013-04-23 11:22:00,70.0,26.0,-100.00,ESE,111,9.0,21.0,19,-99.99,,,-99.99,,2013-04-23 18:22:00,
2013-04-23 11:32:00,70.0,26.0,-100.00,ESE,109,10.0,18.0,19,-99.99,,,-99.99,,2013-04-23 18:32:00,
2013-04-23 11:42:00,70.0,26.0,-100.00,ESE,108,11.0,22.0,19,-99.99,,,-99.99,,2013-04-23 18:42:00,
2013-04-23 11:52:00,70.0,25.0,-100.00,ESE,111,9.0,18.0,18,-99.99,,,-99.99,,2013-04-23 18:52:00,
2013-04-23 12:02:00,71.0,25.0,-100.00,East,98,8.0,18.0,18,-99.99,,,-99.99,,2013-04-23 19:02:00,
2013-04-23 12:11:00,71.0,23.0,-100.00,East,97,8.0,18.0,16,-99.99,,,-99.99,,2013-04-23 19:11:00,
2013-04-23 12:21:00,71.0,23.0,-100.00,East,99,7.0,16.0,16,-99.99,,,-99.99,,2013-04-23 19:21:00,
2013-04-23 12:32:00,72.0,22.0,-100.00,East,94,8.0,14.0,15,-99.99,,,-99.99,,2013-04-23 19:32:00,
2013-04-23 12:42:00,72.0,22.0,-100.00,East,88,8.0,16.0,15,-99.99,,,-99.99,,2013-04-23 19:42:00,
2013-04-23 12:52:00,72.0,23.0,-100.00,East,95,7.0,14.0,16,-99.99,,,-99.99,,2013-04-23 19:52:00,
2013-04-23 13:01:00,72.0,23.0,-100.00,East,93,6.0,13.0,16,-99.99,,,-99.99,,2013-04-23 20:01:00,
2013-04-23 13:11:00,72.0,23.0,-100.00,East,98,7.0,17.0,16,-99.99,,,-99.99,,2013-04-23 20:11:00,
2013-04-23 13:21:00,73.0,24.0,-100.00,ESE,110,7.0,16.0,16,-99.99,,,-99.99,,2013-04-23 20:21:00,
2013-04-23 13:31:00,73.0,23.0,-100.00,ESE,116,8.0,14.0,15,-99.99,,,-99.99,,2013-04-23 20:31:00,
2013-04-23 13:41:00,74.0,23.0,-100.00,ESE,118,7.0,15.0,15,-99.99,,,-99.99,,2013-04-23 20:41:00,
2013-04-23 13:51:00,73.0,23.0,-100.00,ESE,121,7.0,16.0,15,-99.99,,,-99.99,,2013-04-23 20:51:00,
2013-04-23 14:01:00,73.0,23.0,-100.00,ESE,121,7.0,16.0,15,-99.99,,,-99.99,,2013-04-23 21:01:00,
2013-04-23 14:11:00,74.0,22.0,-100.00,East,101,5.0,13.0,14,-99.99,,,-99.99,,2013-04-23 21:11:00,
2013-04-23 14:21:00,74.0,22.0,-100.00,SE,131,7.0,13.0,14,-99.99,,,-99.99,,2013-04-23 21:21:00,
2013-04-23 14:32:00,73.0,21.0,-100.00,SE,131,8.0,14.0,14,-99.99,,,-99.99,,2013-04-23 21:32:00,
2013-04-23 14:43:00,73.0,21.0,-100.00,ESE,115,6.0,12.0,14,-99.99,,,-99.99,,2013-04-23 21:43:00,
2013-04-23 14:52:00,74.0,22.0,-100.00,ESE,117,6.0,13.0,14,-99.99,,,-99.99,,2013-04-23 21:52:00,
2013-04-23 15:02:00,75.0,23.0,-100.00,SE,128,6.0,12.0,14,-99.99,,,-99.99,,2013-04-23 22:02:00,
2013-04-23 15:12:00,74.0,22.0,-100.00,SE,125,8.0,13.0,14,-99.99,,,-99.99,,2013-04-23 22:12:00,
2013-04-23 15:22:00,74.0,22.0,-100.00,ESE,109,6.0,11.0,14,-99.99,,,-99.99,,2013-04-23 22:22:00,
2013-04-23 15:32:00,75.0,23.0,-100.00,ESE,109,6.0,13.0,14,-99.99,,,-99.99,,2013-04-23 22:32:00,
2013-04-23 15:42:00,74.0,22.0,-100.00,ENE,61,4.0,12.0,14,-99.99,,,-99.99,,2013-04-23 22:42:00,
2013-04-23 15:52:00,74.0,22.0,-100.00,ESE,117,5.0,11.0,14,-99.99,,,-99.99,,2013-04-23 22:52:00,
2013-04-23 16:02:00,74.0,22.0,-100.00,SE,125,7.0,14.0,14,-99.99,,,-99.99,,2013-04-23 23:02:00,
2013-04-23 16:12:00,74.0,22.0,-100.00,SE,126,5.0,12.0,14,-99.99,,,-99.99,,2013-04-23 23:12:00,
2013-04-23 16:22:00,74.0,22.0,-100.00,SE,144,7.0,13.0,14,-99.99,,,-99.99,,2013-04-23 23:22:00,
2013-04-23 16:31:00,74.0,22.0,-100.00,ESE,106,6.0,14.0,14,-99.99,,,-99.99,,2013-04-23 23:31:00,
2013-04-23 16:42:00,74.0,20.0,-100.00,ESE,110,4.0,11.0,13,-99.99,,,-99.99,,2013-04-23 23:42:00,
2013-04-23 16:52:00,74.0,22.0,-100.00,SE,146,6.0,13.0,14,-99.99,,,-99.99,,2013-04-23 23:52:00,
2013-04-23 17:01:00,74.0,20.0,-100.00,ESE,123,7.0,14.0,13,-99.99,,,-99.99,,2013-04-24 00:01:00,
2013-04-23 17:11:00,73.0,21.0,-100.00,SE,137,5.0,11.0,14,-99.99,,,-99.99,,2013-04-24 00:11:00,
2013-04-23 17:21:00,73.0,19.0,-100.00,ESE,102,5.0,10.0,13,-99.99,,,-99.99,,2013-04-24 00:21:00,
2013-04-23 17:32:00,74.0,20.0,-100.00,South,170,4.0,7.0,13,-99.99,,,-99.99,,2013-04-24 00:32:00,
2013-04-23 17:41:00,74.0,20.0,-100.00,South,170,4.0,7.0,13,-99.99,,,-99.99,,2013-04-24 00:41:00,
2013-04-23 17:51:00,74.0,20.0,-100.00,South,184,4.0,7.0,13,-99.99,,,-99.99,,2013-04-24 00:51:00,
2013-04-23 18:01:00,74.0,20.0,-100.00,South,174,5.0,9.0,13,-99.99,,,-99.99,,2013-04-24 01:01:00,
2013-04-23 18:11:00,73.0,21.0,-100.00,SSE,152,4.0,9.0,14,-99.99,,,-99.99,,2013-04-24 01:11:00,
2013-04-23 18:21:00,72.0,20.0,-100.00,SSE,161,5.0,10.0,14,-99.99,,,-99.99,,2013-04-24 01:21:00,
2013-04-23 18:31:00,72.0,20.0,-100.00,SSE,168,4.0,8.0,14,-99.99,,,-99.99,,2013-04-24 01:31:00,
2013-04-23 18:42:00,71.0,19.0,-100.00,SSE,159,5.0,8.0,14,-99.99,,,-99.99,,2013-04-24 01:42:00,
2013-04-23 18:52:00,71.0,19.0,-100.00,SE,146,5.0,9.0,14,-99.99,,,-99.99,,2013-04-24 01:52:00,
2013-04-23 19:02:00,70.0,19.0,-100.00,SSE,163,4.0,7.0,14,-99.99,,,-99.99,,2013-04-24 02:02:00,
2013-04-23 19:13:00,69.0,19.0,-100.00,SSE,148,3.0,7.0,15,-99.99,,,-99.99,,2013-04-24 02:13:00,
2013-04-23 19:24:00,69.0,19.0,-100.00,ESE,112,3.0,5.0,15,-99.99,,,-99.99,,2013-04-24 02:24:00,
2013-04-23 19:34:00,69.0,18.0,-100.00,East,86,3.0,6.0,14,-99.99,,,-99.99,,2013-04-24 02:34:00,
2013-04-23 19:45:00,68.0,17.0,-100.00,East,81,3.0,6.0,14,-99.99,,,-99.99,,2013-04-24 02:45:00,
2013-04-23 20:03:00,67.0,16.0,-100.00,NE,54,2.0,7.0,14,-99.99,,,-99.99,,2013-04-24 03:03:00,
2013-04-23 20:24:00,64.0,20.0,-100.00,SE,143,1.0,3.0,18,-99.99,,,-99.99,,2013-04-24 03:24:00,
2013-04-23 20:54:00,62.0,19.0,-100.00,SE,137,2.0,4.0,19,-99.99,,,-99.99,,2013-04-24 03:54:00,
2013-04-23 21:02:00,62.0,19.0,-100.00,ESE,102,2.0,4.0,19,-99.99,,,-99.99,,2013-04-24 04:02:00,
2013-04-23 21:12:00,61.0,20.0,-100.00,SE,130,2.0,3.0,20,-99.99,,,-99.99,,2013-04-24 04:12:00,
2013-04-23 21:22:00,60.0,21.0,-100.00,South,172,1.0,2.0,22,-99.99,,,-99.99,,2013-04-24 04:22:00,
2013-04-23 21:33:00,59.0,20.0,-100.00,ESE,114,1.0,3.0,22,-99.99,,,-99.99,,2013-04-24 04:33:00,
2013-04-23 21:43:00,60.0,21.0,-100.00,ESE,107,2.0,3.0,22,-99.99,,,-99.99,,2013-04-24 04:43:00,
2013-04-23 21:52:00,59.0,20.0,-100.00,SE,140,2.0,2.0,22,-99.99,,,-99.99,,2013-04-24 04:52:00,
2013-04-23 22:02:00,59.0,20.0,-100.00,SE,125,0.0,2.0,22,-99.99,,,-99.99,,2013-04-24 05:02:00,
2013-04-23 22:12:00,59.0,21.0,-100.00,East,97,0.0,2.0,23,-99.99,,,-99.99,,2013-04-24 05:12:00,
2013-04-23 22:21:00,58.0,21.0,-100.00,SSW,212,1.0,2.0,24,-99.99,,,-99.99,,2013-04-24 05:21:00,
2013-04-23 22:32:00,59.0,21.0,-100.00,East,83,1.0,3.0,23,-99.99,,,-99.99,,2013-04-24 05:32:00,
2013-04-23 22:42:00,59.0,20.0,-100.00,East,91,1.0,3.0,22,-99.99,,,-99.99,,2013-04-24 05:42:00,
2013-04-23 22:51:00,59.0,20.0,-100.00,SSE,148,1.0,2.0,22,-99.99,,,-99.99,,2013-04-24 05:51:00,
2013-04-23 23:02:00,58.0,20.0,-100.00,SE,124,3.0,5.0,23,-99.99,,,-99.99,,2013-04-24 06:02:00,
2013-04-23 23:11:00,56.0,21.0,-100.00,ESE,118,3.0,5.0,25,-99.99,,,-99.99,,2013-04-24 06:11:00,
2013-04-23 23:21:00,55.0,22.0,-100.00,SE,130,2.0,3.0,27,-99.99,,,-99.99,,2013-04-24 06:21:00,
2013-04-23 23:32:00,54.0,22.0,-100.00,SSE,156,1.0,2.0,28,-99.99,,,-99.99,,2013-04-24 06:32:00,
2013-04-23 23:41:00,55.0,23.0,-100.00,ESE,116,1.0,2.0,29,-99.99,,,-99.99,,2013-04-24 06:41:00,
2013-04-23 23:51:00,56.0,23.0,-100.00,East,96,1.0,3.0,28,-99.99,,,-99.99,,2013-04-24 06:51:00,